Location: Holyhead Bay
(53.3667°N, 4.6667°W)
Time: 06:46:20
(UTC+00:00)

CSL-04 Rocket - Pass Details

Date: 24 November 2020
Orbit: 807 x 859 km, 98.9° (Epoch: 23 January)

Event Time Altitude Azimuth Distance (km) Brightness Sun altitude
Exits shadow 19:43:25 44° 217° (SW) 1,129 4.4 -31.0°
Maximum altitude 19:44:37 53° 259° (W) 1,007 4.3 -31.2°
Drops below altitude 10° 19:49:51 10° 336° (NNW) 2,417 6.4 -32.0°
Sets 19:52:15 0° 342° (NNW) 3,348 7.1 -32.3°
